Weather History for Mobile Downtown, AL

Change the Weather History Date:

Friday, March 22, 2013

  Actual Average Record
Temperature  
Mean Temperature 60 °F -  
Max Temperature 66 °F 67 °F 80 °F (2005)
Min Temperature 54 °F 49 °F 35 °F (1998)
Degree Days  
Heating Degree Days 5    
Growing Degree Days 10 (Base 50)    
Moisture  
Dew Point 50 °F    
Average Humidity 72    
Maximum Humidity 84    
Minimum Humidity 55    
Precipitation  
Precipitation 0.00 in - - ()
Sea Level Pressure  
Sea Level Pressure 29.92 in    
Wind  
Wind Speed 9 mph (ESE)    
Max Wind Speed 16 mph    
Max Gust Speed -    
Visibility 10 miles    
Events Rain    
Averages and records for this station are not official NWS values.
T = Trace of Precipitation, MM = Missing Value Source: NWS Daily Summary

Daily Weather History Graph

Daily Weather History Graph

Search for Another Location

Airport:

Trip Planner

Search our weather history database for the weather conditions in past years. The results will help you decide how hot, cold, wet, or windy it might be!

Date:

Astronomy

Mar. 22, 2013 Rise Set
Actual Time 6:53 AM CDT 7:05 PM CDT
Civil Twilight 6:29 AM CDT 7:29 PM CDT
Nautical Twilight 6:01 AM CDT 7:57 PM CDT
Astronomical Twilight 5:32 AM CDT 8:25 PM CDT
Moon 2:48 PM CDT (3/22) 3:36 AM CDT (3/22)
Length of Visible Light 12h 59m
Length of Day
12h 11m
Waxing Gibbous, 77% of the Moon is Illuminated
Mar 22
Waxing Gibbous
Mar 27
Full
Apr 2
Last Quarter
Apr 10
New
Apr 18
First Quarter

Hourly Weather History & Observations

Time (CDT) Temp. Dew Point Humidity Pressure Visibility Wind Dir Wind Speed Gust Speed Precip Events Conditions
12:53 AM 55.9 °F 46.9 °F 72% 29.92 in 10.0 mi ESE 6.9 mph - N/A   Overcast
1:53 AM 57.0 °F 45.0 °F 64% 29.94 in 10.0 mi East 5.8 mph - N/A   Overcast
2:53 AM 55.0 °F 46.0 °F 72% 29.94 in 10.0 mi NE 3.5 mph - N/A   Overcast
3:27 AM 55.4 °F 46.4 °F 72% 29.91 in 10.0 mi East 8.1 mph - N/A   Mostly Cloudy
3:53 AM 54.0 °F 46.0 °F 75% 29.92 in 10.0 mi ENE 6.9 mph - N/A   Clear
4:53 AM 55.0 °F 46.0 °F 72% 29.91 in 10.0 mi East 8.1 mph - N/A   Overcast
5:53 AM 55.9 °F 44.1 °F 64% 29.93 in 10.0 mi East 9.2 mph - N/A   Overcast
6:53 AM 54.0 °F 42.1 °F 64% 29.93 in 10.0 mi East 13.8 mph - N/A   Overcast
7:53 AM 55.0 °F 43.0 °F 64% 29.94 in 10.0 mi East 13.8 mph - N/A   Overcast
8:53 AM 55.9 °F 43.0 °F 62% 29.94 in 10.0 mi East 16.1 mph - N/A   Mostly Cloudy
9:53 AM 60.1 °F 44.1 °F 55% 29.94 in 10.0 mi ESE 15.0 mph - N/A   Overcast
10:53 AM 62.1 °F 48.0 °F 60% 29.95 in 10.0 mi ESE 11.5 mph - N/A   Overcast
11:53 AM 63.0 °F 51.1 °F 65% 29.94 in 10.0 mi SE 12.7 mph - N/A   Overcast
12:53 PM 66.9 °F 52.0 °F 59% 29.93 in 10.0 mi SE 13.8 mph - N/A   Mostly Cloudy
1:53 PM 64.9 °F 53.1 °F 65% 29.91 in 10.0 mi SE 9.2 mph - N/A   Overcast
2:53 PM 64.9 °F 55.0 °F 70% 29.89 in 10.0 mi SE 5.8 mph - N/A   Overcast
3:53 PM 63.0 °F 57.0 °F 81% 29.88 in 10.0 mi East 10.4 mph - 0.00 in Rain Light Rain
4:53 PM 63.0 °F 57.9 °F 84% 29.87 in 10.0 mi East 10.4 mph - 0.00 in   Overcast
5:53 PM 63.0 °F 57.9 °F 84% 29.88 in 10.0 mi ESE 8.1 mph - N/A   Overcast
6:53 PM 62.1 °F 57.0 °F 84% 29.89 in 10.0 mi ESE 10.4 mph - N/A   Overcast
7:53 PM 62.1 °F 55.9 °F 80% 29.90 in 10.0 mi East 12.7 mph - N/A   Overcast
8:53 PM 61.0 °F 55.0 °F 81% 29.91 in 10.0 mi East 10.4 mph - N/A   Overcast
9:53 PM 61.0 °F 55.0 °F 81% 29.91 in 10.0 mi ESE 10.4 mph - N/A   Overcast
10:53 PM 61.0 °F 55.0 °F 81% 29.91 in 10.0 mi ESE 8.1 mph - N/A   Overcast
11:53 PM 62.1 °F 55.0 °F 78% 29.91 in 10.0 mi East 6.9 mph - N/A   Overcast